Wind_Speed
63 59 54 52 50 48 46 44 42 42 44 47 49 50 49 46 42 37 34 34 34 35 36 35 33 29 26 24 22 22 21 21 20 20 20 21 21 21 20 19 19 18 17 16 16 16 16 16 16 16 16 15 15 15 15 15 14 14 15 16 17 17 18 17 17 17 16 15 14 13 12 12 12 12 11 10 8 7 7 8 9 9 10 11 11 11
61 60 57 55 53 52 49 45 43 42 46 49 51 51 49 45 40 37 35 35 35 35 35 33 31 28 26 24 22 22 21 21 20 20 20 21 21 21 21 20 19 18 17 17 17 16 16 16 16 16 16 16 16 16 16 15 15 15 15 16 17 17 17 17 16 16 15 14 13 13 12 12 12 12 11 10 9 8 8 8 9 10 10 11 11 10
58 58 58 56 55 54 50 45 42 43 48 51 53 52 49 44 40 38 36 36 36 35 34 32 30 28 25 23 22 22 21 21 20 20 20 21 21 21 21 20 19 18 18 17 17 17 17 16 16 16 16 16 16 16 16 16 16 16 16 16 17 17 17 16 16 15 14 14 13 12 12 12 12 12 12 10 9 8 9 9 9 10 10 11 10 10
53 54 55 56 55 54 49 44 42 45 50 53 54 51 47 43 40 39 38 37 36 35 33 31 30 28 25 23 22 22 21 21 20 20 20 21 21 21 21 21 20 19 18 18 17 17 17 17 16 16 17 17 17 17 17 17 16 16 16 16 17 17 16 16 16 15 14 13 13 12 12 12 12 12 12 11 10 9 9 9 10 10 11 10 10 9
48 49 51 53 54 51 46 42 42 47 52 54 54 50 46 43 40 39 38 37 36 34 32 31 29 27 24 23 22 22 21 20 20 20 20 20 21 21 21 21 20 19 19 18 18 17 17 17 17 17 17 17 18 18 17 17 17 16 16 16 16 16 16 16 15 15 14 13 13 13 12 13 13 13 12 12 11 10 10 10 10 11 11 11 10 9
45 45 48 50 50 46 42 41 44 49 53 55 53 49 45 42 40 39 38 37 35 33 32 30 28 26 24 23 22 22 21 20 20 20 20 20 21 21 22 21 21 20 19 19 18 18 17 17 17 17 18 18 18 18 18 17 17 17 16 16 16 16 16 16 15 15 14 14 13 13 13 13 13 13 13 12 11 11 10 11 11 11 11 11 10 9
45 45 47 47 45 43 41 43 47 51 55 55 52 47 43 40 39 39 38 36 34 33 31 30 27 25 23 23 22 22 21 21 20 20 20 20 21 21 22 22 21 21 20 19 19 18 18 18 18 18 18 18 18 18 18 17 17 17 16 16 16 16 16 15 15 15 14 14 13 13 13 13 13 13 13 12 12 11 11 11 11 11 11 10 10 9
46 46 46 44 42 42 43 47 50 53 55 53 49 44 40 39 38 38 37 35 34 32 31 29 26 24 23 23 22 22 21 21 20 20 20 20 21 22 22 22 22 21 21 20 19 19 18 18 18 18 19 19 19 18 18 18 17 17 17 16 16 16 16 15 15 15 14 14 13 13 13 13 13 13 13 13 12 12 12 12 12 12 11 10 10 10
45 45 44 43 42 43 46 50 52 54 53 50 44 39 37 37 37 37 36 34 33 31 30 27 25 24 23 23 23 22 22 21 21 20 20 21 21 22 22 22 22 22 21 21 20 19 19 18 19 19 19 19 19 19 18 18 17 17 17 16 16 16 16 15 15 15 14 14 14 13 13 13 13 13 13 13 13 13 12 12 12 12 11 10 10 10
42 42 42 42 44 46 48 50 52 52 51 45 38 34 33 34 35 35 34 33 32 31 29 26 24 23 23 23 23 23 22 22 21 21 21 21 21 22 22 23 23 23 22 21 20 20 19 19 19 19 19 19 19 19 18 18 18 17 17 17 16 16 16 15 15 15 15 14 14 13 13 13 13 13 13 13 13 13 13 13 12 12 11 11 10 10
38 40 41 43 45 47 48 48 49 49 46 39 33 31 31 32 34 34 33 32 31 29 27 25 24 24 24 24 24 23 23 22 21 21 21 21 21 22 22 23 23 23 23 22 21 20 20 19 20 20 20 20 19 19 19 18 18 18 17 17 17 16 16 16 15 15 15 14 14 13 13 13 14 14 14 14 14 13 13 13 12 12 11 11 10 10
35 37 40 43 46 47 47 48 48 46 41 34 29 29 30 31 32 32 32 31 30 28 26 24 24 24 24 24 24 24 23 22 22 22 22 22 22 22 22 23 23 23 23 22 22 21 20 20 20 20 20 20 20 19 19 19 18 18 17 17 17 16 16 16 15 15 15 14 14 13 14 14 14 14 14 14 14 14 13 13 12 12 11 11 10 10
34 36 40 44 46 46 47 47 47 44 37 30 27 27 28 29 30 30 30 30 29 26 25 24 24 24 25 25 25 24 23 23 22 22 22 22 22 22 23 23 23 24 24 23 22 22 21 21 21 21 20 20 20 20 19 19 18 18 18 17 17 17 16 16 16 15 15 14 14 14 14 14 14 14 14 14 14 14 13 13 13 12 11 11 11 10
34 37 40 43 45 45 46 47 47 43 35 29 25 25 27 28 29 30 30 29 28 26 25 25 25 25 26 25 25 24 23 23 23 22 22 22 22 22 23 23 24 24 24 24 23 22 22 22 21 21 21 20 20 20 19 19 19 18 18 18 17 17 16 16 16 15 15 15 14 14 14 14 15 15 15 15 14 14 14 13 13 12 12 11 11 11
35 39 42 44 44 45 46 47 47 43 36 29 25 26 28 29 30 30 30 28 27 26 25 26 26 26 26 26 25 24 24 23 23 23 22 22 22 22 23 24 24 24 24 24 24 23 23 22 22 22 21 21 20 20 20 19 19 19 18 18 18 17 17 16 16 16 15 15 15 15 15 15 15 15 15 15 15 14 14 13 13 12 12 11 11 11
36 40 43 44 43 44 45 46 46 42 36 30 27 27 29 30 30 30 29 27 26 26 26 26 26 27 26 26 25 24 24 23 23 23 22 22 22 23 23 24 25 25 25 25 24 24 23 23 23 22 22 21 21 20 20 20 19 19 19 18 18 17 17 17 16 16 16 15 15 15 15 16 16 16 16 15 15 15 14 14 13 13 12 12 12 11
36 40 42 41 40 40 42 44 44 41 36 31 29 29 30 30 30 29 28 27 26 26 26 26 27 27 26 26 25 24 24 23 23 22 22 23 23 23 24 25 25 26 26 26 25 25 24 24 23 23 22 21 21 21 20 20 19 19 19 19 18 17 17 17 17 17 16 16 16 16 16 16 16 16 16 16 15 15 14 14 13 13 12 12 12 12
38 40 41 39 38 37 38 40 40 38 35 32 32 32 32 31 30 29 28 27 26 26 26 26 27 27 26 26 25 24 23 23 23 23 23 23 24 24 24 25 26 26 26 26 26 25 25 24 24 23 22 22 21 21 21 20 20 19 19 19 18 18 17 17 17 17 17 17 16 16 17 17 17 17 17 16 16 15 15 14 14 13 13 12 12 12
40 42 42 40 38 37 37 37 37 36 34 33 33 33 32 31 30 29 28 27 26 26 26 26 27 27 26 26 25 24 24 24 24 24 24 24 24 25 25 26 27 27 27 27 26 26 25 24 24 23 23 22 22 21 21 20 20 20 19 19 19 18 17 18 18 18 17 17 17 17 17 17 17 17 17 16 16 15 15 14 14 13 13 13 12 12
40 41 41 40 38 36 36 35 35 34 33 32 32 31 30 29 28 27 26 25 25 25 26 26 27 27 26 26 25 24 24 24 25 25 25 25 25 25 26 26 27 27 27 27 27 26 26 25 24 24 23 22 22 22 21 21 20 20 20 19 19 18 18 18 18 18 18 18 18 18 18 18 18 18 17 17 16 15 15 15 14 14 13 13 12 12
38 38 37 35 34 33 33 33 32 31 30 29 28 27 27 26 25 25 24 24 24 25 26 27 27 27 27 26 25 25 25 25 25 26 25 26 26 26 26 27 27 28 28 27 27 27 26 25 25 24 23 23 22 22 21 21 20 20 20 20 19 19 18 18 19 19 19 19 19 19 19 19 19 18 18 17 16 16 15 15 14 14 13 13 13 12
36 34 33 32 31 31 32 32 31 29 27 26 25 24 24 24 23 23 23 24 25 26 26 27 27 27 27 26 26 25 25 26 26 26 26 26 26 26 26 27 28 28 28 28 27 27 26 26 25 24 23 23 22 22 22 21 21 20 20 20 19 19 19 19 19 19 19 19 19 19 19 19 19 18 18 17 17 16 16 15 15 14 14 13 13 13
32 32 32 32 33 33 34 33 31 28 26 24 24 23 23 23 23 24 24 25 26 27 27 28 28 27 27 26 26 26 26 26 26 27 27 27 26 26 26 27 28 28 28 28 27 27 26 26 25 24 24 23 23 22 22 21 21 21 20 20 20 19 19 19 20 20 20 20 20 20 20 20 19 19 18 17 17 16 16 16 15 15 14 14 13 13
28 30 32 33 35 35 36 34 31 28 25 24 24 24 24 24 25 25 26 27 27 28 28 28 27 27 27 27 26 26 26 26 27 27 27 26 26 26 26 27 28 28 28 28 27 27 27 26 25 25 24 23 23 22 22 22 21 21 21 20 20 20 20 20 20 20 21 21 21 21 21 20 20 19 18 18 17 17 16 16 15 15 14 14 13 13
26 28 30 32 34 34 34 32 29 27 25 25 25 25 25 26 26 27 27 27 27 27 27 27 27 27 27 27 27 26 26 26 27 27 27 26 26 26 26 27 28 28 28 28 28 27 27 26 25 25 24 24 23 23 22 22 22 21 21 21 21 20 21 21 21 21 21 21 21 21 21 21 20 19 19 18 18 17 17 16 16 15 15 14 14 13
27 27 28 29 30 31 31 29 27 26 25 26 26 26 26 27 27 27 27 27 27 26 26 27 27 27 27 27 27 26 26 26 27 27 27 27 26 26 26 27 28 28 28 28 28 27 27 26 26 25 24 24 23 23 23 22 22 22 21 21 21 21 21 21 22 22 22 22 22 22 21 21 20 20 19 19 18 18 17 17 16 15 15 14 14 14
30 30 30 29 28 27 27 27 26 25 25 26 26 27 26 26 26 26 26 26 26 26 26 26 27 27 27 27 27 27 26 27 27 27 27 27 27 26 26 27 28 28 28 28 28 27 27 26 26 25 24 24 24 23 23 23 22 22 22 22 21 21 22 22 22 23 23 23 22 22 22 21 21 20 20 19 19 18 18 17 16 16 15 15 14 14
33 33 31 29 27 26 26 25 25 24 25 25 26 26 25 25 25 25 25 25 25 26 26 26 27 27 27 27 27 27 27 27 27 27 27 28 27 27 27 28 28 29 29 28 28 27 27 26 26 25 25 24 24 24 23 23 23 22 22 22 22 22 22 23 23 23 23 23 23 23 22 22 21 21 20 20 19 19 18 17 17 16 15 15 15 14
35 33 31 29 27 26 25 25 24 24 24 25 25 25 24 24 25 25 25 25 26 26 26 26 27 27 27 27 27 27 28 28 28 28 28 28 28 27 27 28 29 29 28 28 28 27 26 26 26 25 25 25 24 24 24 23 23 23 22 22 22 23 23 23 24 24 24 24 23 23 22 22 21 21 20 20 19 19 18 17 17 16 16 15 15 14
35 31 29 28 27 26 25 25 24 24 25 24 24 24 24 24 25 25 25 25 26 26 26 26 26 27 27 27 28 28 28 28 28 28 28 29 28 27 27 28 29 29 28 28 28 27 26 26 26 25 25 25 25 24 24 23 23 23 23 23 23 23 24 24 24 24 24 24 24 23 23 22 22 21 21 20 20 19 18 18 17 16 16 15 15 15
31 28 27 27 27 26 25 25 25 25 25 25 24 24 24 25 25 25 25 25 25 26 26 26 26 26 27 27 28 28 28 28 28 28 29 29 28 27 27 28 28 28 28 28 27 27 26 26 26 26 26 25 25 24 24 24 24 23 23 23 24 24 24 25 25 25 25 24 24 24 23 23 22 21 21 20 20 19 18 18 17 17 16 16 15 15
27 26 27 27 27 26 26 26 26 26 25 25 25 25 25 25 25 25 25 25 25 25 26 26 26 26 27 28 28 28 28 28 28 29 29 29 28 27 27 28 28 28 28 27 27 27 26 26 26 26 26 26 25 25 25 24 24 24 24 24 24 25 25 25 26 25 25 25 24 24 23 23 22 22 21 20 20 19 18 18 17 17 16 16 15 15
25 26 26 27 27 27 27 27 27 26 26 25 25 25 25 25 25 25 25 25 25 25 26 26 26 27 27 28 28 28 28 28 29 30 30 29 28 27 27 27 28 28 28 27 27 27 27 27 27 27 26 26 26 25 25 25 25 25 25 25 25 26 26 26 26 26 25 25 24 24 23 23 22 22 21 20 20 19 18 18 17 17 16 16 16 15
24 25 27 27 28 28 28 28 28 27 26 26 26 26 25 25 25 25 25 25 25 25 25 26 26 27 28 28 29 28 29 29 30 31 30 29 28 27 27 28 28 28 28 28 27 27 27 27 27 27 27 26 26 26 25 25 25 25 25 25 26 26 27 27 26 26 26 25 25 24 23 23 22 22 21 20 20 19 18 18 17 17 17 16 16 16
24 26 27 28 29 29 29 29 29 28 27 27 26 26 26 26 25 25 25 25 25 25 25 26 27 27 28 29 29 29 29 29 30 31 30 29 28 27 27 28 28 28 28 27 27 27 27 27 27 27 27 27 26 26 26 26 26 26 26 26 27 27 27 27 27 26 26 25 25 24 24 23 22 22 21 20 20 19 19 18 18 17 17 17 16 16
25 27 28 29 30 30 31 30 30 29 28 27 27 26 26 26 25 25 25 25 25 25 26 26 27 28 28 28 28 28 29 29 30 31 30 29 28 27 27 27 27 27 27 27 27 27 27 27 27 27 27 27 26 26 26 26 26 26 26 27 27 28 28 27 27 27 26 26 25 24 24 23 22 22 21 20 20 19 19 18 18 18 17 17 17 17
27 28 29 30 31 32 32 31 30 29 28 27 27 26 26 26 25 25 25 25 25 25 26 27 27 28 28 29 28 28 29 29 30 30 29 28 27 27 27 27 27 27 27 27 27 27 27 27 27 27 27 27 26 26 26 26 26 26 27 27 28 28 28 28 27 27 26 26 25 24 24 23 23 22 21 21 20 20 19 19 18 18 18 18 17 17
28 29 30 31 32 32 32 32 31 30 29 28 27 27 26 26 25 25 25 25 25 26 26 27 27 28 28 28 28 28 28 29 29 28 28 27 26 26 26 26 26 27 27 27 27 27 27 27 27 27 27 26 26 26 26 27 27 27 27 28 28 28 28 28 27 27 26 25 25 24 24 23 22 22 21 21 20 20 19 19 19 18 18 18 18 17
29 30 31 32 33 33 33 32 31 30 29 28 28 27 27 26 26 25 25 25 25 26 26 27 27 28 28 28 28 28 28 27 27 27 26 26 25 25 25 26 26 26 26 27 27 27 27 27 27 27 26 26 26 27 27 27 27 28 28 29 29 29 28 28 27 26 26 25 25 24 24 23 22 22 21 21 20 20 20 19 19 19 18 18 18 18
31 31 32 33 33 33 33 32 31 30 29 29 28 28 27 26 26 25 25 25 26 26 26 27 27 27 27 27 27 27 26 26 25 25 25 25 25 25 25 25 26 26 26 26 27 26 26 26 26 26 27 27 27 27 27 28 28 29 29 29 29 28 28 27 27 26 26 25 25 24 23 23 22 22 21 21 21 20 20 19 19 19 19 18 18 18
32 33 33 34 34 34 33 33 32 31 30 29 29 28 27 26 26 26 25 25 26 26 26 26 27 27 27 26 26 26 25 25 24 24 24 24 25 25 25 25 26 26 26 26 26 26 26 26 26 27 27 27 28 28 28 28 29 29 29 29 29 28 28 27 27 26 26 25 25 24 24 23 23 22 22 21 21 20 20 20 19 19 19 18 18 18
34 34 34 35 34 34 34 33 32 31 31 30 29 28 27 26 26 26 25 25 25 26 26 26 26 26 26 25 25 25 24 24 23 23 24 24 25 25 25 26 26 26 26 26 26 26 26 26 26 27 27 28 28 28 29 29 30 30 30 30 30 29 29 28 27 26 26 25 25 24 24 23 23 22 22 21 21 20 20 19 19 19 19 18 18 18
35 35 35 35 35 35 34 34 33 32 31 30 29 28 27 27 26 26 25 25 25 25 25 25 25 25 25 24 24 24 23 23 23 23 24 24 25 25 25 26 26 26 26 26 26 26 26 26 27 27 28 28 28 28 29 30 30 30 30 30 30 30 29 28 27 26 26 25 25 24 24 23 23 22 22 21 21 20 20 20 19 19 19 19 19 18
36 36 36 36 36 35 35 34 33 32 31 30 29 28 27 27 26 26 25 25 25 25 25 25 25 24 24 23 23 23 23 23 23 24 24 24 25 25 25 25 26 26 26 26 26 26 26 26 27 28 28 28 28 29 29 30 30 30 30 30 30 29 28 27 27 26 26 25 25 24 24 23 23 22 22 21 21 20 20 20 20 19 19 19 19 19
38 38 38 37 37 36 36 35 34 33 32 31 30 29 28 27 26 26 25 25 25 25 25 25 24 24 23 23 22 22 22 23 23 24 24 24 25 25 25 25 26 26 26 26 26 26 27 27 27 28 28 29 29 29 30 30 30 30 30 30 29 29 28 28 27 26 26 25 25 24 24 23 23 22 22 21 21 21 20 20 20 20 19 19 19 19
39 39 39 38 38 37 36 35 34 33 32 31 30 29 28 27 27 26 25 25 25 24 24 24 24 23 22 22 21 22 22 23 23 24 24 24 25 25 25 25 25 25 26 26 26 27 27 28 28 29 29 29 29 30 30 30 30 30 30 30 29 29 28 28 27 26 26 25 25 24 24 23 23 22 22 21 21 21 21 20 20 20 20 19 19 19
40 40 40 39 38 37 36 35 34 33 33 32 31 30 29 28 27 26 26 25 25 24 24 24 23 23 22 21 21 22 22 23 23 24 24 24 25 25 25 25 25 25 26 26 27 28 28 29 29 30 30 30 30 30 30 30 30 30 30 29 29 28 28 27 26 26 25 25 24 24 24 23 22 22 22 22 21 21 21 20 20 20 19 19 19 19
41 40 40 39 39 38 37 36 35 34 33 32 31 31 30 29 28 27 26 25 25 24 24 23 23 22 22 22 22 22 22 23 23 24 24 24 25 25 25 25 26 26 26 27 27 28 29 30 30 30 30 30 30 31 31 31 30 30 30 29 29 28 27 27 26 25 25 24 24 24 23 23 22 22 22 22 21 21 21 20 20 20 19 19 19 19
41 41 40 40 39 38 37 36 35 34 34 33 32 31 30 29 28 27 26 25 25 24 24 23 23 22 22 22 22 22 23 23 24 24 24 25 25 25 26 26 26 26 27 27 28 29 30 30 30 30 30 30 31 31 31 31 31 31 30 29 28 28 27 27 26 25 25 24 24 23 23 23 22 22 22 22 21 21 21 20 20 20 19 19 19 19
42 41 41 40 39 38 37 36 36 35 34 34 33 32 31 30 29 28 27 26 25 24 23 23 22 22 22 22 23 23 23 24 24 24 25 25 25 26 26 26 26 27 27 28 29 29 30 30 30 30 30 31 31 31 31 31 31 31 30 29 29 28 27 27 26 25 25 24 24 24 23 23 23 23 22 22 21 21 20 20 20 20 20 19 19 19
43 42 41 41 40 39 38 37 36 36 35 34 33 32 31 30 29 28 27 26 25 24 23 23 23 23 23 23 23 23 24 24 24 24 25 25 25 26 26 26 27 27 28 28 29 30 30 31 31 31 31 31 31 31 31 31 31 30 30 29 28 28 27 26 26 25 25 24 24 24 23 23 23 22 22 21 21 21 20 20 20 20 20 20 20 20
Wind_Direction
264 264 264 261 256 252 253 254 253 249 243 237 236 237 237 236 239 246 253 256 257 258 258 259 257 255 253 255 258 262 262 262 261 261 261 263 264 266 268 270 272 273 274 275 275 276 277 278 280 281 282 283 284 284 283 281 279 278 277 278 279 281 284 287 289 290 291 293 293 292 289 284 278 274 270 266 258 245 230 220 213 210 210 212 214 217
263 261 261 259 255 251 251 252 251 246 238 233 231 232 234 237 243 251 256 257 257 257 257 256 253 251 251 254 257 260 260 260 259 259 260 262 264 266 268 270 271 273 274 275 275 275 276 277 278 279 280 280 281 281 280 279 277 275 274 274 275 277 279 281 282 284 285 287 288 286 282 277 272 268 264 259 250 236 222 213 207 206 208 211 214 217
263 260 259 258 254 251 250 250 248 242 235 231 229 230 233 239 247 253 254 255 256 256 254 252 249 247 249 253 256 257 258 257 257 258 259 262 264 266 268 270 272 273 274 274 274 274 274 275 276 277 277 278 278 278 278 277 276 275 274 274 275 276 277 278 280 281 283 283 283 280 276 271 266 262 257 251 242 229 216 209 205 205 208 211 214 217
264 260 258 256 253 250 249 249 244 238 233 230 229 230 235 242 249 251 252 252 253 253 250 246 244 245 248 252 254 255 256 255 255 256 258 261 264 266 268 270 272 273 274 274 274 273 273 273 274 274 275 275 275 275 275 276 275 275 274 274 275 275 276 278 279 280 281 281 279 275 271 266 261 256 251 244 234 222 213 207 205 207 209 212 214 216
264 260 257 253 250 248 248 245 240 235 231 229 228 231 238 244 248 248 249 250 250 248 245 242 242 244 248 251 253 253 253 253 253 254 257 260 263 266 268 270 271 272 273 273 273 272 272 272 272 272 272 272 273 273 274 274 274 274 274 274 274 274 275 276 278 279 279 278 276 272 267 261 256 250 244 237 228 218 210 207 207 208 211 213 214 215
262 259 254 250 248 246 244 239 235 232 230 228 229 234 241 244 245 244 245 246 246 243 240 239 241 244 248 250 251 252 252 251 252 253 255 258 261 264 267 269 270 271 272 272 272 271 270 270 269 269 269 270 271 272 272 273 273 273 273 272 272 272 273 274 275 277 277 276 273 268 263 257 251 245 238 231 222 214 209 208 209 210 211 212 213 214
256 254 250 247 245 243 239 235 232 230 227 228 231 237 241 241 240 241 242 243 241 239 237 237 240 244 247 249 250 251 250 250 250 252 254 257 260 263 265 268 269 270 271 271 271 270 269 268 268 267 268 268 269 270 271 272 272 272 272 271 270 270 270 271 273 273 274 272 270 265 259 252 246 239 232 225 218 212 209 209 210 211 211 211 212 213
248 247 245 244 242 238 234 231 228 227 226 229 234 238 238 236 237 238 239 239 237 235 235 237 240 244 246 248 249 249 249 249 249 251 253 256 258 261 264 266 268 269 270 270 270 269 268 267 266 266 266 267 268 269 271 271 271 271 270 269 268 268 268 269 270 270 270 268 265 261 254 248 240 233 227 220 214 210 209 209 210 211 211 210 211 212
244 245 244 241 238 232 228 225 224 224 226 231 235 235 233 233 234 235 236 235 233 233 234 237 240 243 246 247 247 248 247 248 248 250 252 255 257 260 263 265 267 268 269 269 269 268 267 266 266 266 266 267 268 269 270 270 270 270 268 267 266 265 265 266 267 266 266 264 261 256 250 242 235 228 222 217 212 210 209 210 210 210 210 210 210 212
247 246 243 238 232 227 222 220 220 222 226 230 232 230 227 229 231 232 232 231 230 231 234 237 239 242 245 246 246 246 246 247 248 250 252 254 256 259 261 264 266 267 268 268 268 267 266 265 265 265 265 266 267 268 269 269 269 268 267 265 264 263 263 263 263 263 262 260 257 252 245 238 231 224 218 214 211 209 209 210 210 210 210 210 210 212
252 247 241 233 226 221 218 217 219 221 225 227 227 224 223 225 227 228 228 229 230 232 234 236 239 242 244 245 245 245 245 246 248 250 252 254 256 258 260 262 264 266 267 267 267 266 265 264 264 264 264 265 266 267 268 268 268 267 265 263 262 261 260 260 260 259 258 256 252 247 240 233 226 220 216 213 210 209 209 210 210 210 210 210 211 212
253 244 236 227 221 217 216 217 218 221 222 224 223 222 222 223 224 225 227 229 231 233 234 236 238 241 243 244 244 244 245 246 248 249 251 253 255 257 259 261 263 265 266 266 266 265 264 264 263 263 263 264 265 266 266 267 266 265 263 261 260 259 258 257 257 255 254 251 248 242 236 228 222 217 214 212 210 209 209 210 210 211 211 211 211 212
250 240 230 223 219 217 217 217 218 219 221 224 224 223 222 223 223 225 227 229 231 232 233 236 238 240 241 242 243 244 245 246 248 250 251 253 255 257 259 260 262 263 264 265 265 264 264 263 262 262 262 263 263 264 265 265 264 263 261 259 258 256 255 254 253 252 250 247 244 238 231 225 219 215 213 212 211 210 210 210 211 211 211 211 212 213
246 237 228 222 219 219 220 220 220 221 224 228 228 225 224 224 225 226 227 228 229 230 232 235 238 239 240 241 242 243 245 246 248 250 252 253 255 257 258 260 261 262 263 264 264 263 263 262 261 261 261 261 262 262 263 263 262 261 259 257 255 254 253 251 249 248 246 244 240 234 228 222 217 214 213 212 210 210 210 210 211 211 212 212 212 213
246 237 228 223 221 222 224 224 225 226 230 232 230 226 225 226 226 226 226 226 227 228 231 235 237 239 240 241 242 243 245 247 249 251 252 254 255 257 258 259 260 261 262 262 262 262 262 261 261 260 260 260 260 261 261 261 260 259 257 255 253 251 249 247 245 243 242 240 236 231 225 219 215 213 212 211 211 210 211 211 211 212 212 212 212 213
246 237 229 224 224 226 228 229 229 230 233 233 230 227 226 226 225 224 224 224 226 228 232 235 237 239 240 241 242 243 245 247 250 252 254 255 256 256 257 258 259 260 260 261 261 261 260 260 260 260 259 259 260 260 260 259 259 257 255 253 251 249 246 244 241 240 238 237 233 228 222 217 214 213 212 212 211 211 211 211 212 212 212 212 212 213
242 235 228 224 223 225 229 231 233 234 234 231 228 226 225 224 222 222 222 224 226 229 232 235 237 239 240 242 243 244 247 249 251 252 254 255 255 256 256 257 258 258 259 260 260 260 259 259 258 258 258 258 259 259 259 258 257 255 253 251 249 246 244 240 238 236 235 233 230 225 220 216 214 213 212 212 211 211 211 212 212 212 212 212 212 213
235 230 225 221 221 224 229 233 236 237 235 229 225 223 222 221 220 221 222 224 226 229 232 235 237 240 241 243 245 247 248 250 252 253 254 255 255 255 255 256 256 257 258 259 259 259 258 257 257 257 257 257 257 257 257 257 256 254 251 249 247 244 241 237 235 233 232 230 227 223 219 215 213 212 212 212 211 211 212 212 212 212 212 212 212 213
231 230 227 224 224 228 234 238 241 240 235 228 223 221 220 219 219 220 222 224 226 229 232 235 237 240 242 244 246 248 249 251 252 253 254 254 255 255 255 255 256 256 257 258 258 258 257 256 255 255 255 255 255 256 256 255 254 252 250 248 245 242 239 235 232 231 230 228 224 220 217 215 213 212 212 212 212 212 212 212 212 212 212 212 212 213
233 233 232 232 234 238 242 244 243 239 233 226 222 219 219 219 219 221 223 224 227 229 232 235 238 240 242 244 246 248 249 251 253 254 254 255 255 256 255 255 255 256 256 257 257 256 255 254 253 253 253 253 254 254 254 254 252 250 248 245 243 240 236 233 231 229 228 225 222 219 216 214 213 212 212 212 212 212 212 213 213 212 212 212 212 213
238 238 239 240 243 245 245 243 239 233 226 221 218 217 217 218 220 221 223 225 228 231 234 236 239 241 243 245 246 248 250 251 253 254 255 256 256 256 256 256 256 256 256 256 256 255 254 252 251 251 251 251 252 253 253 252 250 248 246 243 241 238 234 231 229 227 226 223 220 217 215 213 212 212 212 212 212 212 212 213 212 212 212 212 213 213
242 242 242 242 241 240 238 235 229 223 218 214 213 213 215 217 220 223 225 227 230 233 235 238 240 242 244 245 247 248 249 251 253 254 255 256 257 257 257 256 256 256 255 255 254 253 252 250 249 249 249 249 250 251 251 250 249 246 244 241 239 236 233 230 228 226 224 221 218 215 214 212 212 212 212 212 212 212 212 213 213 212 213 213 214 214
241 241 239 237 235 232 228 224 220 215 210 209 209 212 214 217 220 223 225 228 231 233 236 238 241 243 245 246 248 249 250 252 254 255 256 257 258 258 257 256 256 255 254 254 253 251 250 249 248 247 247 248 249 249 249 249 247 244 242 240 237 234 231 228 226 224 221 218 216 214 213 212 212 212 212 212 212 212 213 213 213 213 213 214 215 215
240 240 238 236 234 230 225 220 214 208 205 205 208 211 214 217 220 223 225 228 231 234 237 239 242 245 247 248 250 251 252 254 255 256 257 258 258 258 257 256 255 254 253 252 251 249 248 246 246 246 246 246 247 248 248 247 245 243 240 238 235 232 229 227 224 222 219 216 214 212 212 211 212 211 211 211 212 212 212 213 213 213 214 215 216 217
240 242 241 240 237 232 226 218 210 205 202 204 208 212 215 218 221 224 227 230 233 236 239 242 245 247 249 251 252 253 255 256 257 258 258 258 258 257 255 254 253 252 251 250 249 247 246 245 244 244 244 245 246 246 246 245 243 241 238 236 233 231 228 225 223 220 217 214 212 211 211 211 211 211 211 211 212 212 212 213 213 214 215 215 217 218
242 245 245 244 239 233 224 216 209 203 202 205 209 213 216 219 223 226 229 232 236 239 242 245 248 250 252 253 254 255 256 257 258 258 259 258 257 255 253 252 251 250 249 248 247 246 244 243 242 242 243 244 244 244 244 243 241 239 237 235 232 229 227 224 221 218 215 213 211 211 210 211 211 211 211 211 212 212 213 213 213 214 215 217 218 220
246 249 250 246 238 229 221 214 209 206 206 208 211 215 218 222 226 229 233 235 238 241 245 247 249 251 253 255 256 257 258 259 259 259 258 257 256 253 251 250 249 248 247 246 245 244 243 242 241 241 241 242 243 243 243 241 239 237 235 233 231 228 225 222 219 216 213 211 210 210 210 210 211 211 211 211 212 212 213 213 214 215 216 218 219 221
251 252 250 244 234 225 218 214 211 210 211 213 215 218 221 225 230 234 236 238 241 243 246 248 250 252 254 256 258 259 259 259 259 259 258 256 254 252 249 247 246 245 245 244 243 242 241 240 240 240 240 241 241 242 241 240 237 235 233 231 229 226 223 220 217 214 212 210 210 209 210 210 211 211 211 212 212 213 213 214 214 216 217 219 221 223
255 252 246 238 229 221 217 215 214 215 216 218 220 223 226 230 234 237 239 241 242 245 247 249 251 253 255 257 259 259 259 260 260 259 258 256 253 251 248 245 244 244 243 242 242 241 240 239 238 238 239 239 240 240 239 238 236 234 232 230 227 225 222 218 215 213 211 210 209 209 210 210 211 211 212 212 213 213 213 214 215 216 218 220 222 224
254 247 238 230 224 219 217 216 217 218 220 222 225 227 230 233 236 239 241 242 244 246 249 251 252 255 257 258 259 260 260 261 261 260 258 256 253 250 247 244 243 243 242 241 240 239 238 237 237 237 237 238 238 238 238 236 234 232 230 228 226 223 220 216 214 211 210 209 209 209 210 210 211 211 212 212 213 213 214 215 216 217 219 221 223 225
247 238 230 225 221 219 218 218 220 221 223 226 228 230 233 235 238 240 242 244 246 248 251 252 254 256 258 259 260 261 262 263 262 261 258 256 253 249 246 243 242 242 241 240 239 238 237 236 236 236 236 236 236 236 236 234 232 230 228 226 223 220 217 215 212 210 209 209 209 209 209 210 211 211 212 213 213 214 215 215 216 218 220 222 223 225
237 230 226 223 222 221 221 222 223 224 226 228 231 233 235 237 239 241 243 245 247 249 252 254 256 258 259 260 261 262 263 262 261 259 257 254 251 247 243 241 240 239 238 238 237 236 235 234 234 235 235 235 235 234 234 232 231 229 227 224 221 218 215 213 211 210 209 209 209 209 210 210 211 212 213 213 214 214 215 216 217 219 221 222 224 226
230 228 227 226 226 225 225 225 226 227 229 231 233 235 237 238 240 242 244 246 248 251 253 256 258 259 260 261 262 262 261 260 258 257 256 253 249 245 241 239 237 236 236 235 235 234 232 232 232 233 234 233 233 232 232 230 229 227 225 222 219 216 214 212 210 209 209 208 209 209 210 211 211 212 213 214 214 215 216 217 218 220 221 223 224 226
231 230 230 230 230 230 229 229 229 229 231 232 234 236 238 239 241 242 244 247 249 252 254 256 258 260 260 261 261 261 260 259 257 256 255 252 248 244 240 237 235 235 234 233 233 232 231 230 231 231 232 232 232 231 230 229 227 226 223 220 217 214 212 211 209 209 208 208 209 209 210 211 212 212 213 214 214 215 216 217 218 220 222 223 225 226
237 236 235 234 234 233 232 232 231 231 232 233 235 237 238 240 241 243 245 247 250 252 254 256 258 259 260 260 260 260 259 257 256 256 254 251 248 243 239 236 234 233 233 232 232 231 230 230 230 230 231 231 231 230 229 227 226 224 221 218 215 212 211 209 209 208 208 209 209 209 210 211 212 213 213 214 215 215 216 218 219 221 222 224 225 227
243 240 239 237 236 236 235 234 233 233 234 235 236 237 239 240 242 243 245 248 250 252 254 256 257 258 259 259 259 259 257 256 255 255 253 250 246 242 238 235 233 232 231 231 230 229 229 229 229 229 230 230 229 229 227 226 224 222 219 216 213 211 209 209 208 208 208 208 209 209 210 211 211 212 213 214 214 215 216 218 219 221 222 224 226 227
247 244 241 239 238 236 235 235 234 234 235 236 237 238 239 241 242 244 246 248 250 252 254 256 257 257 258 258 258 257 256 255 255 254 253 250 245 240 236 233 232 231 230 229 228 228 228 227 228 228 229 229 228 227 226 225 223 220 217 214 211 210 209 208 208 208 208 209 209 209 210 211 212 212 213 214 214 215 216 218 219 221 223 224 226 227
250 246 243 240 238 236 235 235 234 235 236 237 238 239 240 241 242 244 246 248 250 252 254 255 256 256 256 256 256 256 255 255 254 253 251 248 243 238 234 231 230 229 229 228 228 227 227 227 227 228 228 228 227 226 224 223 220 217 214 212 210 209 208 208 208 208 208 209 209 210 211 211 212 213 213 214 215 216 217 218 220 222 223 225 226 227
252 248 244 241 238 236 235 234 234 235 236 237 238 239 240 241 242 244 246 248 249 251 253 254 254 255 255 255 255 255 254 254 253 251 248 244 239 235 232 229 228 228 228 227 227 226 226 226 227 227 227 226 225 224 222 220 217 214 212 210 209 208 207 207 207 208 208 209 210 210 211 212 212 213 213 214 215 216 218 219 221 222 223 225 226 227
253 249 244 241 238 236 235 234 235 235 236 237 238 239 240 241 242 244 245 247 249 251 252 253 253 254 254 254 254 254 253 252 250 247 243 239 235 231 229 227 226 226 227 226 226 226 225 226 226 226 225 224 223 221 220 217 215 212 210 208 207 207 207 207 207 207 208 209 210 210 211 212 213 213 214 215 216 217 218 220 221 222 224 225 225 226
252 248 244 240 238 236 235 235 235 235 235 236 237 238 239 240 242 244 245 247 248 250 251 252 252 253 253 253 253 253 252 249 246 242 238 234 230 228 226 224 224 225 225 225 225 225 225 225 225 225 224 223 221 219 217 215 212 210 208 207 206 206 206 206 207 207 208 208 209 210 211 212 213 213 214 215 216 218 219 220 221 223 224 225 225 226
250 246 242 239 237 236 235 235 235 235 235 236 237 238 239 240 242 243 245 246 248 249 250 251 252 252 252 252 251 251 249 246 242 237 233 230 227 225 224 223 223 223 223 223 223 223 224 224 224 224 223 222 220 218 215 213 210 208 206 205 205 205 205 205 206 207 207 208 209 210 211 212 213 214 215 216 217 218 219 220 221 222 223 224 225 226
246 243 240 238 237 236 235 235 235 235 235 236 237 238 239 240 241 242 244 246 247 249 250 250 251 251 251 250 249 248 246 242 238 234 230 228 226 224 223 223 223 223 223 223 222 223 223 223 223 222 222 221 219 216 214 212 210 207 205 205 205 205 204 205 206 207 207 208 209 210 211 212 213 214 215 216 217 218 219 220 221 222 223 223 224 225
242 240 238 237 236 235 235 235 235 235 236 236 237 237 238 239 240 242 243 245 246 248 249 249 250 250 249 248 247 245 242 239 235 231 228 226 225 224 224 223 223 223 222 222 222 222 222 222 221 221 220 218 216 214 212 211 209 207 206 205 205 205 205 205 206 207 207 208 210 211 212 212 214 214 215 216 216 217 218 219 220 221 222 223 224 225
238 237 236 236 235 235 235 235 235 236 236 237 237 237 238 238 239 241 242 244 245 247 248 249 249 249 248 247 245 242 239 236 233 229 227 225 224 224 224 223 223 223 222 222 221 221 220 220 220 219 218 216 213 211 210 209 208 207 207 206 206 205 205 206 206 206 207 208 209 210 212 213 214 214 215 215 216 217 218 219 220 221 222 223 225 226
235 235 234 234 234 234 234 235 236 236 237 237 237 237 237 238 239 240 241 243 244 246 247 248 248 247 246 245 242 240 236 233 231 228 226 225 224 223 223 223 223 223 222 221 221 220 219 218 217 216 215 213 211 209 208 207 207 207 207 207 206 206 206 206 206 207 207 208 209 210 212 213 213 214 214 215 216 216 217 218 220 221 223 224 225 226
234 233 233 233 233 234 234 235 236 236 237 237 237 237 237 237 238 239 240 242 243 244 246 246 246 246 244 242 239 236 234 231 228 226 225 224 223 223 223 223 223 223 222 221 220 219 218 216 215 214 212 210 209 208 207 207 206 206 207 207 207 206 206 207 207 207 208 208 209 210 212 212 213 213 214 214 215 216 217 219 220 222 223 224 226 227
233 233 232 233 233 233 234 234 235 236 237 237 237 237 237 237 237 238 239 240 242 243 244 245 245 244 242 239 236 234 231 228 226 225 223 223 222 222 222 222 222 222 221 220 219 218 217 216 214 212 210 208 207 206 206 206 206 206 206 207 207 206 206 206 206 207 208 209 210 211 212 212 212 212 213 214 215 216 218 219 221 222 224 225 227 228
232 232 232 232 232 233 233 234 235 236 237 237 237 237 237 237 236 237 238 239 240 242 243 244 244 242 240 237 234 231 229 226 224 223 222 221 221 221 221 221 221 220 219 218 217 216 215 214 212 210 208 207 206 206 206 206 206 206 206 206 206 206 206 205 206 206 207 209 210 211 211 211 212 212 213 214 215 217 219 220 222 223 225 226 228 230
231 231 231 231 232 232 233 234 235 236 237 237 237 237 237 236 236 236 236 237 239 240 242 242 242 240 237 234 232 229 227 225 223 222 222 221 221 221 220 220 219 219 217 216 215 214 213 212 210 208 207 206 206 206 207 207 207 207 206 206 206 206 205 205 205 206 207 208 209 209 210 210 211 212 213 214 216 218 220 221 223 224 226 228 229 231
230 230 230 230 231 232 233 234 235 236 236 237 237 237 236 235 235 234 235 236 237 239 240 241 240 238 235 232 230 227 225 224 223 222 222 222 221 221 220 219 218 217 215 214 213 212 211 210 208 207 206 206 206 207 208 209 209 208 207 206 206 206 206 205 206 206 206 207 208 208 209 210 211 212 214 215 217 219 221 223 224 226 228 229 230 232
Height
3070 3073 3076 3077 3077 3076 3076 3076 3077 3078 3078 3077 3075 3073 3074 3075 3076 3077 3079 3081 3082 3084 3085 3086 3087 3088 3089 3089 3090 3090 3090 3090 3090 3090 3090 3090 3090 3090 3090 3090 3090 3091 3091 3091 3090 3090 3090 3090 3089 3089 3089 3088 3088 3088 3088 3088 3088 3088 3088 3087 3087 3087 3087 3087 3087 3087 3087 3087 3087 3087 3087 3087 3088 3088 3088 3088 3088 3088 3088 3089 3089 3089 3090 3090 3090 3091
3065 3068 3070 3072 3073 3072 3072 3073 3074 3075 3075 3074 3072 3071 3071 3072 3073 3075 3077 3078 3080 3081 3082 3084 3085 3086 3086 3087 3087 3088 3088 3088 3088 3088 3088 3088 3087 3087 3088 3088 3088 3089 3089 3089 3089 3088 3088 3088 3088 3087 3087 3087 3087 3087 3086 3086 3086 3086 3086 3086 3086 3086 3086 3086 3086 3086 3086 3086 3086 3086 3086 3086 3086 3087 3087 3087 3087 3088 3088 3088 3088 3089 3089 3089 3090 3090
3060 3062 3065 3067 3068 3069 3068 3069 3071 3072 3072 3070 3069 3068 3068 3069 3071 3073 3075 3076 3077 3079 3080 3081 3082 3083 3084 3085 3085 3086 3086 3086 3086 3086 3086 3086 3085 3085 3086 3086 3086 3086 3087 3087 3087 3087 3086 3086 3086 3086 3086 3086 3086 3085 3085 3085 3085 3085 3085 3085 3085 3085 3085 3085 3085 3085 3085 3085 3085 3085 3086 3086 3086 3086 3086 3086 3087 3087 3087 3087 3088 3088 3088 3089 3089 3090
3056 3058 3059 3062 3064 3065 3065 3066 3068 3069 3068 3067 3066 3066 3066 3067 3069 3071 3072 3073 3075 3076 3077 3079 3080 3081 3081 3082 3083 3083 3084 3084 3084 3084 3084 3084 3083 3083 3083 3084 3084 3085 3085 3085 3085 3085 3085 3085 3085 3085 3084 3084 3084 3084 3084 3084 3084 3084 3083 3083 3083 3083 3083 3083 3083 3083 3084 3084 3084 3084 3084 3085 3085 3085 3085 3086 3086 3086 3086 3087 3087 3087 3088 3088 3089 3089
3053 3054 3055 3058 3060 3061 3062 3064 3065 3065 3064 3064 3063 3064 3064 3066 3067 3069 3070 3071 3072 3074 3075 3076 3077 3078 3079 3080 3081 3081 3081 3082 3082 3082 3082 3082 3081 3081 3081 3082 3082 3082 3083 3083 3083 3083 3083 3083 3083 3083 3083 3083 3083 3082 3082 3082 3082 3082 3082 3082 3082 3082 3081 3081 3081 3082 3082 3082 3083 3083 3083 3083 3084 3084 3084 3085 3085 3086 3086 3086 3086 3087 3087 3087 3088 3088
3051 3051 3053 3055 3056 3057 3059 3061 3061 3061 3061 3061 3061 3061 3062 3064 3066 3067 3068 3069 3070 3071 3072 3074 3075 3075 3076 3077 3078 3079 3079 3080 3080 3080 3080 3080 3080 3080 3080 3080 3080 3081 3081 3081 3081 3082 3082 3082 3081 3081 3081 3081 3081 3081 3081 3081 3081 3081 3081 3081 3081 3080 3080 3080 3080 3081 3081 3081 3081 3082 3082 3082 3082 3083 3083 3084 3084 3085 3085 3085 3086 3086 3086 3087 3087 3088
3049 3050 3051 3052 3052 3054 3056 3057 3057 3057 3057 3057 3057 3059 3061 3062 3064 3065 3066 3066 3068 3069 3070 3071 3072 3073 3074 3075 3076 3076 3077 3077 3078 3078 3078 3078 3078 3078 3078 3078 3078 3079 3079 3079 3080 3080 3080 3080 3080 3080 3080 3080 3080 3079 3079 3079 3079 3079 3079 3079 3079 3079 3079 3079 3079 3079 3080 3080 3080 3081 3081 3081 3081 3082 3082 3083 3083 3084 3084 3085 3085 3085 3086 3086 3087 3087
3046 3047 3048 3048 3049 3051 3052 3053 3054 3054 3054 3054 3055 3056 3059 3060 3061 3062 3063 3064 3065 3066 3067 3069 3070 3071 3072 3072 3073 3074 3075 3076 3076 3076 3076 3076 3076 3076 3076 3076 3076 3077 3077 3077 3078 3078 3078 3078 3078 3078 3078 3078 3078 3078 3078 3078 3078 3077 3077 3077 3077 3077 3078 3078 3078 3078 3078 3079 3079 3079 3080 3080 3080 3081 3081 3082 3082 3083 3083 3084 3084 3085 3085 3086 3086 3086
3044 3044 3045 3046 3047 3048 3049 3050 3050 3051 3052 3052 3053 3054 3056 3057 3059 3060 3061 3062 3063 3064 3065 3066 3067 3069 3069 3070 3071 3072 3073 3073 3074 3074 3074 3075 3075 3074 3074 3074 3074 3075 3075 3076 3076 3076 3076 3076 3076 3076 3076 3076 3076 3076 3076 3076 3076 3076 3076 3076 3076 3076 3076 3076 3077 3077 3077 3077 3078 3078 3078 3079 3079 3080 3080 3081 3081 3082 3082 3083 3083 3084 3084 3085 3085 3086
3041 3042 3043 3044 3045 3045 3046 3046 3047 3048 3050 3050 3051 3052 3053 3055 3056 3057 3058 3060 3061 3062 3063 3064 3065 3066 3067 3068 3069 3070 3071 3071 3071 3072 3072 3072 3072 3072 3072 3072 3072 3073 3073 3074 3074 3074 3075 3075 3075 3075 3074 3074 3074 3074 3074 3074 3074 3074 3074 3074 3075 3075 3075 3075 3076 3076 3076 3076 3076 3077 3077 3078 3078 3079 3079 3080 3081 3081 3081 3082 3082 3083 3083 3084 3084 3085
3039 3040 3041 3042 3042 3043 3044 3044 3045 3046 3047 3048 3049 3050 3051 3052 3054 3055 3056 3057 3059 3060 3061 3062 3063 3064 3065 3066 3067 3068 3068 3069 3070 3070 3070 3071 3071 3071 3071 3071 3071 3071 3071 3071 3072 3072 3072 3073 3073 3073 3073 3073 3073 3073 3073 3073 3073 3073 3073 3073 3073 3073 3074 3074 3074 3074 3075 3075 3076 3076 3076 3077 3077 3078 3078 3079 3080 3080 3081 3081 3081 3082 3083 3083 3084 3084
3036 3038 3039 3039 3040 3040 3041 3042 3042 3043 3044 3045 3046 3047 3049 3050 3051 3053 3054 3056 3056 3057 3058 3059 3061 3062 3063 3064 3065 3066 3066 3067 3067 3068 3068 3068 3069 3069 3069 3069 3069 3069 3069 3069 3070 3070 3071 3071 3071 3071 3071 3071 3071 3071 3071 3071 3071 3071 3071 3071 3071 3072 3072 3072 3073 3073 3073 3074 3074 3075 3075 3076 3076 3077 3077 3078 3079 3079 3080 3080 3081 3081 3082 3082 3083 3083
3035 3036 3037 3037 3037 3037 3038 3038 3039 3040 3041 3042 3044 3045 3046 3048 3050 3051 3052 3053 3054 3054 3056 3057 3058 3060 3061 3061 3062 3063 3064 3065 3065 3066 3066 3066 3067 3067 3067 3066 3066 3067 3067 3067 3068 3068 3068 3069 3069 3069 3069 3069 3069 3069 3069 3069 3069 3069 3070 3070 3070 3070 3071 3071 3071 3072 3072 3073 3073 3074 3074 3075 3075 3076 3076 3077 3078 3078 3079 3079 3080 3081 3081 3081 3082 3082
3033 3034 3035 3035 3035 3035 3035 3036 3036 3037 3039 3041 3042 3043 3045 3047 3048 3049 3050 3051 3051 3052 3053 3055 3056 3057 3059 3059 3060 3061 3062 3063 3063 3064 3064 3065 3065 3065 3065 3065 3065 3065 3065 3065 3066 3066 3066 3066 3067 3067 3067 3067 3067 3067 3067 3067 3068 3068 3068 3068 3069 3069 3069 3070 3070 3071 3071 3071 3072 3072 3073 3074 3074 3075 3076 3076 3077 3077 3078 3078 3079 3080 3080 3081 3081 3081
3031 3031 3032 3032 3033 3033 3033 3033 3034 3036 3037 3039 3041 3042 3044 3045 3046 3046 3047 3047 3048 3050 3051 3053 3054 3055 3056 3057 3058 3059 3060 3061 3061 3062 3062 3063 3063 3063 3063 3062 3062 3063 3063 3063 3063 3064 3064 3064 3065 3065 3065 3065 3066 3066 3066 3066 3066 3066 3066 3066 3067 3067 3068 3068 3069 3069 3070 3070 3071 3071 3072 3072 3073 3074 3075 3075 3076 3076 3077 3077 3078 3079 3079 3080 3080 3081
3028 3029 3029 3030 3031 3031 3031 3031 3033 3034 3036 3037 3039 3040 3042 3042 3043 3043 3044 3045 3046 3048 3049 3051 3052 3053 3054 3055 3056 3057 3058 3059 3059 3060 3060 3061 3061 3061 3061 3061 3061 3061 3061 3061 3061 3062 3062 3062 3062 3063 3063 3063 3063 3064 3064 3064 3064 3064 3065 3065 3066 3066 3066 3067 3067 3068 3068 3069 3070 3070 3071 3071 3072 3073 3074 3074 3075 3076 3076 3076 3077 3078 3078 3079 3079 3080
3026 3027 3027 3028 3029 3029 3029 3030 3031 3032 3034 3035 3037 3038 3039 3039 3039 3040 3041 3043 3044 3046 3047 3049 3050 3051 3052 3053 3054 3055 3056 3056 3057 3058 3058 3058 3058 3058 3058 3058 3058 3059 3059 3059 3059 3060 3060 3060 3061 3061 3061 3061 3061 3061 3062 3062 3062 3062 3063 3063 3064 3064 3065 3066 3066 3066 3067 3068 3068 3069 3070 3070 3071 3072 3073 3073 3074 3074 3075 3076 3076 3076 3077 3078 3078 3079
3025 3025 3025 3026 3027 3027 3027 3027 3029 3030 3031 3033 3034 3035 3036 3036 3037 3038 3039 3041 3042 3044 3045 3046 3048 3049 3050 3051 3052 3053 3054 3054 3055 3055 3056 3056 3056 3056 3056 3056 3056 3056 3056 3056 3057 3057 3058 3058 3058 3059 3059 3059 3059 3060 3060 3060 3060 3061 3061 3061 3062 3063 3063 3064 3065 3065 3066 3066 3067 3068 3069 3069 3070 3071 3071 3072 3073 3073 3074 3075 3075 3076 3076 3077 3077 3078
3022 3022 3023 3023 3024 3024 3025 3026 3027 3028 3029 3030 3031 3032 3033 3033 3034 3036 3037 3038 3040 3041 3043 3045 3046 3047 3048 3049 3050 3051 3052 3052 3052 3053 3053 3053 3054 3054 3054 3054 3054 3054 3054 3054 3055 3055 3056 3056 3056 3057 3057 3057 3057 3058 3058 3058 3059 3059 3059 3060 3061 3061 3062 3063 3063 3064 3065 3065 3066 3066 3067 3068 3069 3070 3071 3071 3072 3072 3073 3073 3074 3075 3075 3076 3076 3077
3020 3020 3021 3021 3022 3023 3023 3024 3025 3026 3027 3028 3028 3029 3030 3031 3032 3034 3035 3036 3038 3039 3041 3042 3044 3045 3046 3047 3047 3048 3049 3050 3050 3050 3051 3051 3051 3051 3051 3051 3051 3051 3052 3052 3052 3053 3053 3054 3054 3055 3055 3055 3055 3056 3056 3056 3057 3057 3058 3058 3059 3060 3060 3061 3062 3062 3063 3064 3065 3065 3066 3067 3068 3069 3069 3070 3071 3071 3072 3072 3073 3073 3074 3075 3075 3076
3018 3019 3019 3020 3021 3021 3022 3022 3023 3023 3024 3025 3026 3027 3028 3029 3031 3031 3033 3034 3036 3037 3039 3041 3042 3043 3043 3044 3045 3046 3046 3047 3047 3047 3048 3048 3048 3049 3049 3049 3049 3049 3049 3050 3050 3050 3051 3051 3052 3052 3053 3053 3053 3054 3054 3054 3055 3055 3056 3056 3057 3058 3059 3060 3060 3061 3062 3062 3063 3064 3065 3066 3066 3067 3068 3069 3069 3070 3071 3071 3072 3072 3073 3074 3074 3075
3016 3017 3018 3019 3019 3020 3020 3021 3021 3021 3022 3023 3024 3025 3026 3027 3029 3030 3031 3033 3034 3036 3037 3038 3039 3040 3041 3041 3043 3043 3044 3044 3044 3044 3045 3045 3046 3046 3046 3046 3046 3046 3047 3047 3048 3048 3048 3049 3050 3050 3051 3051 3051 3051 3052 3052 3053 3054 3054 3055 3056 3056 3057 3058 3059 3060 3060 3061 3062 3063 3064 3064 3065 3066 3067 3067 3068 3069 3069 3070 3071 3071 3072 3072 3073 3074
3014 3015 3016 3016 3017 3017 3017 3017 3017 3018 3019 3021 3022 3023 3024 3025 3027 3028 3030 3031 3032 3034 3035 3036 3036 3037 3038 3039 3040 3041 3041 3041 3041 3042 3042 3043 3043 3044 3044 3044 3044 3044 3044 3045 3045 3046 3046 3046 3047 3048 3048 3049 3049 3049 3050 3051 3051 3052 3052 3053 3054 3055 3056 3056 3057 3058 3059 3060 3061 3061 3062 3063 3064 3065 3066 3066 3067 3067 3068 3069 3070 3070 3071 3071 3072 3073
3012 3012 3013 3013 3013 3013 3013 3013 3014 3015 3016 3018 3019 3021 3022 3023 3025 3026 3027 3029 3030 3031 3032 3033 3034 3035 3035 3036 3037 3038 3038 3039 3039 3039 3040 3040 3041 3041 3041 3041 3041 3041 3042 3042 3043 3043 3044 3044 3045 3045 3046 3046 3047 3047 3048 3049 3049 3050 3051 3051 3052 3053 3054 3055 3056 3056 3057 3058 3059 3060 3061 3062 3063 3063 3064 3065 3066 3066 3067 3068 3068 3069 3070 3070 3071 3071
3008 3009 3009 3009 3010 3010 3010 3011 3011 3013 3014 3016 3017 3019 3020 3021 3023 3024 3026 3027 3028 3029 3030 3031 3031 3032 3032 3033 3034 3035 3036 3036 3036 3036 3037 3038 3038 3039 3039 3039 3039 3039 3039 3040 3040 3041 3041 3042 3042 3043 3044 3044 3045 3045 3046 3046 3047 3048 3049 3050 3051 3051 3052 3053 3054 3055 3056 3057 3058 3059 3060 3061 3061 3062 3063 3064 3064 3065 3066 3066 3067 3068 3068 3069 3070 3070
3005 3006 3006 3006 3007 3008 3008 3009 3010 3011 3012 3014 3015 3016 3018 3020 3021 3022 3024 3025 3026 3026 3027 3028 3028 3029 3030 3031 3031 3032 3033 3033 3034 3034 3034 3035 3035 3036 3036 3036 3036 3036 3036 3037 3037 3038 3039 3039 3040 3041 3041 3042 3043 3043 3044 3045 3046 3046 3047 3048 3049 3050 3051 3052 3053 3053 3054 3055 3056 3057 3058 3059 3060 3061 3061 3062 3063 3064 3065 3065 3066 3066 3067 3068 3068 3069
3003 3003 3004 3004 3005 3006 3006 3007 3008 3009 3010 3011 3013 3014 3016 3017 3019 3020 3021 3022 3023 3024 3024 3025 3026 3026 3027 3028 3029 3029 3030 3030 3031 3031 3031 3031 3032 3033 3033 3033 3033 3033 3034 3034 3035 3036 3036 3037 3038 3039 3039 3040 3041 3041 3042 3043 3044 3044 3045 3046 3047 3048 3049 3050 3051 3052 3053 3054 3055 3056 3057 3058 3059 3059 3060 3061 3062 3062 3063 3064 3065 3065 3066 3066 3067 3068
3001 3001 3001 3002 3002 3003 3004 3005 3006 3007 3008 3009 3011 3012 3014 3015 3017 3018 3019 3020 3021 3021 3021 3022 3023 3024 3024 3025 3026 3026 3026 3027 3027 3028 3028 3028 3029 3030 3031 3031 3031 3031 3031 3031 3032 3033 3034 3035 3036 3036 3037 3038 3038 3039 3040 3041 3042 3043 3044 3045 3046 3046 3047 3048 3049 3051 3051 3052 3053 3054 3055 3056 3057 3058 3059 3060 3061 3061 3062 3062 3063 3064 3065 3065 3066 3066
2999 2999 2999 2999 3000 3001 3001 3003 3004 3005 3006 3008 3009 3010 3012 3013 3015 3016 3017 3017 3018 3018 3019 3020 3020 3021 3021 3022 3023 3023 3023 3024 3024 3025 3025 3025 3026 3027 3028 3028 3027 3028 3028 3029 3030 3031 3031 3032 3033 3034 3035 3036 3036 3037 3038 3039 3040 3041 3042 3043 3044 3045 3046 3047 3048 3049 3050 3051 3052 3053 3054 3055 3056 3057 3057 3058 3059 3060 3061 3061 3062 3062 3063 3064 3065 3065
2996 2996 2997 2997 2998 2998 3000 3001 3002 3003 3005 3006 3007 3008 3010 3011 3012 3013 3014 3015 3015 3016 3016 3017 3018 3018 3019 3019 3020 3020 3020 3021 3021 3021 3022 3022 3023 3024 3025 3025 3025 3025 3026 3026 3027 3028 3029 3030 3031 3032 3033 3033 3034 3035 3036 3037 3038 3039 3040 3041 3042 3043 3044 3045 3046 3047 3048 3049 3050 3051 3052 3053 3054 3055 3056 3057 3058 3058 3059 3060 3061 3061 3062 3063 3063 3064
2993 2994 2994 2995 2996 2996 2997 2999 3000 3001 3002 3004 3005 3006 3008 3009 3010 3011 3011 3012 3012 3013 3014 3014 3015 3016 3016 3016 3016 3016 3017 3018 3018 3018 3018 3019 3020 3021 3022 3022 3022 3022 3023 3024 3025 3026 3027 3028 3029 3030 3031 3031 3032 3033 3034 3035 3036 3037 3038 3039 3040 3041 3042 3043 3045 3046 3047 3048 3049 3050 3051 3052 3053 3054 3055 3056 3056 3057 3058 3059 3059 3060 3061 3061 3062 3063
2991 2991 2992 2993 2994 2995 2996 2997 2998 2999 3001 3002 3003 3005 3006 3007 3008 3008 3009 3009 3010 3010 3011 3011 3012 3013 3013 3013 3013 3014 3015 3015 3015 3015 3015 3016 3016 3018 3019 3019 3019 3020 3021 3021 3022 3023 3025 3026 3026 3027 3028 3029 3030 3031 3032 3033 3034 3035 3036 3037 3038 3039 3041 3042 3043 3044 3045 3046 3047 3048 3049 3050 3051 3052 3053 3054 3055 3056 3056 3057 3058 3059 3060 3060 3061 3062
2988 2989 2990 2991 2992 2993 2994 2995 2996 2997 2999 3000 3001 3002 3003 3004 3005 3006 3006 3006 3007 3008 3008 3009 3009 3010 3010 3010 3011 3011 3012 3012 3011 3011 3012 3012 3013 3015 3016 3016 3016 3017 3018 3019 3020 3021 3022 3023 3024 3025 3026 3027 3028 3029 3030 3031 3032 3033 3034 3035 3036 3037 3039 3040 3041 3042 3043 3045 3046 3047 3048 3049 3050 3051 3052 3053 3054 3054 3055 3056 3057 3057 3058 3059 3060 3060
2986 2987 2988 2989 2990 2991 2992 2993 2994 2995 2996 2998 2999 3000 3001 3001 3002 3003 3003 3004 3004 3005 3006 3006 3007 3007 3007 3007 3008 3008 3009 3009 3009 3008 3009 3009 3011 3011 3012 3013 3014 3014 3016 3016 3017 3019 3020 3021 3022 3023 3024 3025 3026 3027 3028 3029 3030 3031 3032 3033 3035 3036 3037 3038 3039 3041 3042 3043 3044 3045 3046 3047 3048 3049 3050 3051 3052 3053 3054 3055 3055 3056 3057 3058 3058 3059
2984 2985 2986 2987 2988 2989 2990 2991 2992 2993 2994 2996 2996 2997 2998 2999 2999 3000 3001 3001 3002 3002 3003 3004 3004 3004 3004 3005 3005 3005 3006 3006 3006 3006 3006 3007 3008 3009 3010 3010 3011 3012 3013 3014 3015 3016 3018 3019 3020 3021 3022 3023 3024 3025 3026 3027 3028 3029 3031 3032 3033 3034 3035 3036 3038 3039 3040 3041 3042 3044 3045 3046 3047 3048 3049 3050 3051 3051 3052 3053 3054 3055 3056 3056 3057 3058
2981 2982 2983 2985 2986 2987 2988 2989 2990 2991 2992 2993 2994 2995 2996 2996 2996 2997 2998 2999 2999 3000 3001 3001 3001 3002 3002 3002 3002 3002 3003 3003 3002 3002 3003 3004 3005 3006 3007 3007 3009 3010 3011 3012 3013 3014 3016 3017 3018 3019 3020 3021 3022 3023 3024 3025 3026 3027 3029 3030 3031 3032 3034 3035 3036 3037 3038 3040 3041 3042 3043 3044 3045 3046 3047 3048 3049 3050 3051 3052 3052 3053 3054 3055 3056 3056
2979 2980 2981 2982 2983 2984 2986 2986 2987 2988 2989 2990 2991 2992 2993 2993 2994 2995 2995 2996 2997 2997 2998 2999 2999 2999 2999 2999 3000 3000 3000 3000 3000 3000 3000 3001 3002 3003 3004 3005 3006 3007 3008 3009 3011 3012 3013 3014 3015 3016 3017 3019 3020 3021 3022 3023 3025 3026 3027 3028 3030 3031 3032 3033 3034 3036 3037 3038 3039 3041 3041 3043 3044 3045 3046 3047 3048 3049 3049 3050 3051 3052 3053 3053 3054 3055
2976 2977 2978 2980 2981 2982 2983 2984 2985 2986 2987 2988 2988 2989 2990 2991 2991 2992 2993 2994 2994 2995 2996 2996 2996 2996 2996 2996 2996 2997 2997 2997 2997 2997 2998 2999 3000 3001 3002 3003 3004 3005 3006 3007 3008 3010 3011 3012 3013 3014 3016 3017 3018 3019 3020 3021 3023 3024 3026 3027 3028 3029 3030 3031 3033 3034 3035 3036 3038 3039 3040 3041 3042 3043 3044 3045 3046 3047 3048 3049 3050 3050 3051 3052 3053 3054
2973 2975 2976 2977 2978 2979 2980 2981 2982 2983 2984 2985 2986 2986 2987 2988 2989 2990 2990 2991 2992 2992 2993 2993 2994 2994 2994 2994 2994 2994 2994 2994 2994 2995 2996 2996 2997 2998 2999 3001 3001 3003 3004 3005 3006 3007 3009 3010 3011 3012 3014 3015 3016 3017 3018 3020 3021 3022 3024 3025 3026 3027 3029 3030 3031 3032 3034 3035 3036 3037 3038 3040 3041 3042 3043 3044 3045 3045 3046 3047 3048 3049 3050 3051 3051 3052
2971 2972 2973 2974 2975 2976 2977 2978 2980 2981 2981 2982 2983 2983 2984 2985 2986 2987 2988 2989 2990 2990 2991 2991 2991 2991 2991 2991 2991 2991 2991 2991 2992 2992 2993 2994 2995 2996 2997 2998 2999 3001 3001 3003 3004 3005 3006 3008 3009 3011 3012 3013 3014 3015 3016 3017 3019 3020 3021 3023 3024 3026 3027 3028 3030 3031 3032 3033 3035 3036 3037 3038 3039 3040 3041 3042 3043 3044 3045 3046 3046 3047 3048 3049 3050 3051
2968 2969 2970 2971 2972 2974 2975 2976 2977 2978 2978 2979 2980 2981 2982 2983 2984 2985 2986 2986 2987 2987 2988 2988 2988 2988 2988 2988 2988 2988 2989 2989 2990 2990 2991 2991 2992 2993 2995 2996 2997 2998 2999 3001 3002 3003 3005 3006 3007 3008 3009 3011 3011 3013 3014 3016 3017 3018 3020 3021 3023 3024 3026 3027 3028 3029 3031 3032 3033 3034 3035 3036 3037 3038 3039 3040 3041 3042 3043 3044 3045 3046 3047 3047 3048 3049
2965 2966 2967 2969 2970 2971 2972 2973 2974 2975 2976 2976 2977 2978 2979 2980 2981 2982 2983 2984 2984 2985 2985 2986 2986 2986 2986 2986 2986 2986 2986 2987 2987 2988 2988 2989 2990 2991 2992 2993 2995 2996 2997 2998 3000 3001 3002 3004 3005 3006 3007 3008 3010 3011 3012 3014 3015 3017 3018 3020 3021 3022 3024 3025 3026 3028 3029 3030 3031 3032 3034 3035 3036 3037 3038 3039 3040 3041 3041 3042 3043 3044 3045 3046 3046 3047
2962 2963 2964 2966 2967 2968 2969 2971 2971 2972 2973 2974 2975 2976 2976 2978 2978 2979 2980 2981 2981 2982 2982 2983 2983 2983 2983 2983 2983 2984 2984 2984 2985 2986 2986 2987 2988 2989 2990 2991 2992 2994 2995 2996 2998 2999 3000 3001 3003 3004 3005 3006 3008 3010 3011 3012 3014 3015 3016 3018 3019 3020 3021 3023 3025 3026 3027 3029 3030 3031 3032 3033 3034 3035 3036 3037 3038 3039 3040 3041 3042 3043 3044 3044 3045 3046
2958 2960 2961 2963 2964 2965 2966 2967 2968 2969 2970 2971 2972 2973 2974 2975 2976 2976 2977 2978 2979 2979 2980 2980 2980 2980 2980 2981 2981 2981 2982 2982 2983 2983 2984 2985 2986 2987 2988 2989 2991 2992 2993 2994 2996 2997 2998 3000 3001 3002 3003 3005 3006 3008 3009 3011 3012 3014 3015 3016 3018 3019 3021 3022 3023 3025 3026 3027 3028 3029 3031 3031 3032 3034 3035 3036 3036 3037 3038 3039 3040 3041 3042 3043 3043 3044
2955 2956 2958 2959 2961 2962 2963 2964 2965 2966 2967 2968 2969 2970 2971 2972 2973 2974 2974 2975 2976 2976 2977 2977 2977 2978 2978 2978 2979 2979 2979 2980 2981 2981 2982 2983 2984 2985 2986 2987 2989 2990 2991 2992 2994 2995 2996 2997 2999 3000 3001 3003 3005 3006 3008 3009 3011 3012 3014 3015 3016 3018 3019 3020 3021 3023 3024 3026 3026 3028 3029 3030 3031 3032 3033 3034 3035 3036 3037 3038 3039 3040 3040 3041 3042 3043
2951 2953 2954 2956 2957 2958 2960 2961 2962 2963 2964 2965 2966 2967 2968 2969 2970 2971 2972 2972 2973 2974 2974 2975 2975 2975 2976 2976 2976 2977 2977 2978 2978 2979 2980 2981 2982 2983 2984 2985 2986 2988 2989 2991 2992 2993 2994 2995 2996 2998 3000 3001 3003 3005 3006 3008 3009 3011 3012 3013 3015 3016 3017 3018 3020 3021 3022 3024 3025 3026 3027 3028 3029 3031 3032 3033 3034 3035 3035 3036 3037 3038 3039 3040 3040 3041
2947 2949 2951 2952 2954 2955 2956 2958 2959 2960 2961 2962 2963 2964 2966 2966 2967 2968 2969 2970 2971 2971 2972 2972 2972 2973 2973 2974 2974 2975 2975 2976 2976 2977 2978 2979 2980 2981 2982 2983 2985 2986 2987 2988 2990 2991 2992 2993 2995 2996 2998 3000 3001 3003 3005 3006 3008 3009 3011 3012 3013 3014 3015 3017 3018 3020 3021 3022 3023 3024 3025 3027 3028 3029 3030 3031 3032 3033 3034 3035 3036 3036 3037 3038 3039 3040
2945 2946 2948 2949 2951 2952 2953 2955 2956 2957 2958 2959 2961 2962 2963 2964 2965 2965 2966 2967 2968 2969 2969 2970 2970 2971 2971 2971 2972 2972 2973 2973 2974 2975 2976 2977 2978 2979 2980 2981 2982 2984 2985 2986 2987 2989 2990 2991 2993 2995 2996 2998 3000 3002 3003 3005 3006 3008 3009 3010 3011 3013 3014 3015 3016 3018 3019 3020 3021 3023 3024 3025 3026 3027 3028 3029 3030 3031 3032 3033 3034 3035 3036 3036 3037 3038
2941 2943 2945 2946 2947 2949 2950 2951 2953 2954 2955 2956 2958 2959 2960 2961 2962 2962 2963 2964 2965 2966 2966 2967 2968 2968 2969 2969 2970 2970 2971 2971 2972 2973 2974 2975 2976 2977 2978 2979 2981 2982 2983 2984 2986 2987 2988 2990 2991 2993 2995 2997 2998 3000 3001 3003 3004 3006 3007 3009 3010 3011 3012 3013 3015 3016 3017 3019 3020 3021 3022 3024 3025 3026 3027 3028 3029 3030 3031 3032 3033 3033 3034 3035 3036 3036
2938 2940 2941 2943 2944 2946 2947 2948 2950 2951 2952 2953 2955 2956 2957 2958 2959 2960 2961 2961 2962 2963 2964 2965 2966 2966 2966 2967 2967 2968 2969 2969 2970 2971 2972 2973 2974 2975 2976 2977 2979 2980 2981 2982 2984 2985 2986 2988 2990 2992 2994 2996 2997 2998 3000 3001 3002 3004 3005 3007 3008 3009 3010 3011 3013 3014 3016 3017 3018 3020 3021 3022 3023 3024 3025 3026 3027 3028 3029 3030 3031 3032 3032 3033 3034 3035
2935 2936 2938 2940 2941 2942 2944 2945 2946 2948 2949 2950 2952 2953 2954 2955 2956 2957 2958 2959 2960 2961 2961 2962 2963 2963 2964 2965 2965 2966 2966 2967 2968 2969 2970 2971 2972 2973 2974 2975 2976 2978 2979 2981 2982 2983 2985 2987 2989 2991 2992 2994 2995 2997 2999 3000 3001 3002 3004 3005 3006 3008 3009 3010 3011 3013 3014 3015 3016 3018 3019 3021 3021 3023 3024 3025 3026 3027 3028 3028 3029 3030 3031 3031 3032 3033